Pagina principale
METAR-TAF:

METAR-TAF

Aeroporti :

Dobbiaco, Italia

latitudine: 46-44N, longitudine: 012-13E, altezza: 1222 m

Osservazione

Il bollettino è stato emesso 3 ore e 2 minuti fa, alle 17:55 UTC
Vento calmo
Temperature 19°C
Umidità 56%
Pressione 1022 hPa
Visibilità 10 km o più
Nubi sparse ad un'altezza di 5000 ft

METAR: LIVD 161755Z 00000KT 9999 SCT050 19/10 Q1022 RMK SCT VIS MIN 9999

Ora: 22:57 (20:57 UTC)


TAF: mancante

Osservazioni e previsioni meteorologiche di più di 4000 aeroporti (messaggi METAR e TAF).

Le stazioni disponibili sono rappresentate dai dischi gialli e rossi sulla carta.

Puntare il mouse per vedere il nome della stazione.

Clicca sopra per visualizzare le osservazioni e previsioni meteorologiche.

Per cambiare la mappa : fare clic sui pulsanti verdi con una croce nera per ingrandire, il pulsante verde con un trattino per diminuire, o sulla freccia verde per le mappe adiacenti.


METAR-TAF: